Location: Huesca
(42.1318°N, 0.4078°W)
Time: 09:47:23
(UTC+02:00)

Tiros 1 - Visible Passes

Search period start: 15 July 2024 00:00
Search period end: 25 July 2024 00:00
Orbit: 624 x 656 km, 48.4° (Epoch: 14 July)

Date Brightness Start Highest point End Pass type
(mag) Time Alt. Az. Time Alt. Az. Time Alt. Az.
15 Jul 7.1 22:21:16 10° WNW 22:25:53 89° SSW 22:30:13 11° ESE visible
16 Jul 8.7 00:04:05 10° W 00:07:28 20° SW 00:07:43 20° SW visible
16 Jul 7.6 22:45:13 10° WNW 22:49:38 48° SW 22:52:50 18° SSE visible
17 Jul 8.7 23:09:32 10° W 23:13:12 24° SW 23:15:30 16° S visible
18 Jul 9.5 23:35:39 10° WSW 23:36:34 11° SW 23:37:29 10° SW visible
19 Jul 8.6 22:15:01 10° W 22:18:54 27° SW 22:22:46 10° SSE visible
20 Jul 9.5 22:40:18 10° WSW 22:42:18 13° SW 22:44:18 10° SSW visible
